Location: Campillo
(40.8621°N, 4.2488°W)
Time: 17:53:59
(UTC+00:00)

Cosmos 2084 - Pass Details

Date: 27 September 2021
Orbit: 528 x 653 km, 62.8° (Epoch: 28 October)

Event Time Altitude Azimuth Distance (km) Brightness Sun altitude
Exits shadow 05:02:38 16° 224° (SW) 1,422 4.9 -13.4°
Maximum altitude 05:05:41 70° 306° (NW) 573 3.2 -12.9°
Drops below altitude 10° 05:09:45 10° 31° (NNE) 1,819 6.5 -12.1°
Sets 05:12:01 0° 34° (NE) 2,734 7.5 -11.7°
